カタログに戻る

STARLINK-4597

運用中通信VLEO
NORAD 53640·PAYLOAD·🇺🇸 United States

打ち上げ Aug 28, 2022 から Cape Canaveral Space Force Station

Loading…

次のパス (今後24時間)

TLE

最新Source: CelesTrak SupGP

元期: Sep 14, 2026, 21:11 UTC

1 53640C 22104BE  26257.88312500  .00015912  00000+0  47025-3 0  2571
2 53640  53.1590  87.9017 0001088 127.3199 335.8708 15.34374922    19

AllMySatでSTARLINK-4597をリアルタイム追跡

Download on the App Store